Weather in Turtkul

Uzbekistan     41˚33′29″N   60˚59′28″E
temp.,
°C
wind,
m/s
gust,
m/s
humid.,
%
clouds,
%
prec.,
mm/h
press.,
hPa
HPBL,
m
3 december, thu
thu323:00−4˚nne34600 0.0 1031126
02:00−4˚n34620 0.0 103199
05:00−5˚n45620 0.0 1032111
08:00−5˚nne45580 0.0 1032132
11:00−1˚ne34410 0.0 1033419
14:00+2˚nne45320 0.0 1032516
17:00nne56390 0.0 1032405
20:00−3˚nne35580 0.0 1033146
4 december, fri
fri423:00−4˚ne23670 0.0 103360
02:00−6˚n12780 0.0 103342
05:00−5˚nw23800 0.0 103341
08:00−6˚nw34850 0.0 103459
11:00−1˚nw34600 0.0 1034318
14:00+2˚nw44350 0.0 1033752
17:00+1˚nw33360 0.0 103360
20:00−3˚nne34750 0.0 103358
5 december, sat
sat523:00−4˚nne23820 0.0 103457
02:00−5˚nne23840 0.0 103357
05:00−5˚ne34740 0.0 103379
08:00−6˚ne34730 0.0 1033100
11:00−3˚ne44490 0.0 1034524
14:00−1˚nne33370 0.0 1032591
17:00−3˚ne45390 0.0 1031310
20:00−5˚ne46520 0.0 1032156
6 december, sun
sun623:00−6˚ne45540 0.0 1032136
02:00−6˚ne35540 0.0 1032111
05:00−6˚ne45510 0.0 1032132
08:00−6˚ne46520 0.0 1032138
11:00−2˚ne56400 0.0 1032437
14:00ne56340 0.0 1031553
17:00−3˚ne68390 0.0 1030420
20:00−5˚ne58430 0.0 1031234
7 december, mon
mon723:00−5˚nne59403 0.0 1031239
02:00−6˚nne57430 0.0 1030174
05:00−7˚nne45510 0.0 1030141
08:00−8˚n57534 0.0 1031192
11:00−5˚nne55392 0.0 1032418
14:00−3˚n55340 0.0 1032605
17:00−5˚nne56380 0.0 1033486
20:00−7˚n35410 0.0 1034146